This is the latest recevied weather packets stored in our database for station/object KA1JKB. If no packets are shown the sender has not sent any weather packets the latest 10 day(s).
| Time | Temp. | Humidity | Pressure | Rain* | Wind** | Luminosity | Snow |
|---|---|---|---|---|---|---|---|
| 1788217139 | 22.22° C | 95% | 1012.8 hPa | 0 mm | - | 38 W/m² | - |
| 1788216835 | 22.22° C | 95% | 1013 hPa | 0 mm | - | 30 W/m² | - |
| 1788216530 | 22.78° C | 94% | 1012.9 hPa | 0 mm | - | 34 W/m² | - |
| 1788216225 | 22.78° C | 93% | 1012.6 hPa | 0 mm | - | 44 W/m² | - |
| 1788215925 | 22.22° C | 94% | 1012.7 hPa | 0 mm | - | 49 W/m² | - |
| 1788215621 | 22.22° C | 94% | 1012.9 hPa | 0 mm | - | 44 W/m² | - |
| 1788215318 | 22.22° C | 94% | 1012.7 hPa | 0 mm | - | 30 W/m² | - |
| 1788215013 | 22.22° C | 96% | 1012.6 hPa | 0 mm | - | 46 W/m² | - |
| 1788214713 | 22.22° C | 97% | 1013.1 hPa | 0 mm | - | 62 W/m² | - |
| 1788214409 | 22.22° C | 97% | 1013 hPa | 0 mm | - | 54 W/m² | - |
| 1788214104 | 22.22° C | 97% | 1013.4 hPa | 0 mm | - | 35 W/m² | - |
| 1788213799 | 22.22° C | 97% | 1013.9 hPa | 0 mm | - | 29 W/m² | - |
| 1788213494 | 22.22° C | 96% | 1014 hPa | 0 mm | - | 40 W/m² | - |
| 1788213190 | 22.22° C | 96% | 1013.9 hPa | 0 mm | - | 55 W/m² | - |
| 1788212887 | 22.22° C | 96% | 1013.5 hPa | 0 mm | - | 39 W/m² | - |
| 1788212584 | 22.22° C | 97% | 1013.4 hPa | 0 mm | - | 23 W/m² | - |
| 1788212279 | 22.22° C | 98% | 1013.5 hPa | 1.78 mm | - | 15 W/m² | - |
| 1788211976 | 22.22° C | 99% | 1013.3 hPa | 1.27 mm | - | 10 W/m² | - |
| 1788211675 | 22.78° C | 99% | 1013.9 hPa | 3.05 mm | - | 7 W/m² | - |
| 1788211372 | 22.78° C | 98% | 1014.7 hPa | 3.05 mm | - | 6 W/m² | - |
| 1788211070 | 22.78° C | 97% | 1015 hPa | 1.27 mm | - | 6 W/m² | - |
| 1788210767 | 23.33° C | 97% | 1015.1 hPa | 0 mm | - | 9 W/m² | - |
| 1788210466 | 23.33° C | 96% | 1014.7 hPa | 0 mm | - | 10 W/m² | - |
| 1788210163 | 23.33° C | 95% | 1014.6 hPa | 1.78 mm | - | 12 W/m² | - |
| 1788209862 | 23.89° C | 95% | 1014.7 hPa | 1.78 mm | - | 10 W/m² | - |
* Rain latest hour (hover to see other rain measurements)
** Current wind speed in m/s (hover to see current wind gust speed)